User: anonymous   Login
Location: Unspecified
(0.0000°N, 0.0000°E)
Time: 10:03:29
(UTC+00:00)
Language:

TBA - TO BE ASSIGNED - Orbit

View from above orbital plane
View from above orbital plane
View from above satellite
View from above satellite

Ground track
Ground track

The orbit is defined by the following mean orbital elements,

1 68212U          26145.60571377 +.00000000 +00000-0 +70698-3 0 00009
2 68212  97.2867  21.0184 0002160  85.4292 274.7197 15.33453428    00
Epoch (UTC): 25 May 2026 14:32:13
Eccentricity: 0.0002160
inclination: 97.2867°
perigee height: 464 km
apogee height: 467 km
right ascension of ascending node: 21.0184°
argument of perigee: 85.4292°
revolutions per day: 15.33453428
mean anomaly at epoch: 274.7197°

The dashed part of the orbit path shows where the satellite is in the earth's shadow,  

DLR